Orbital Elements at Epoch 2459200.5 (2020-Dec-17.0) TDB
Reference: JPL 16 (heliocentric ecliptic J2000)
Element | Value | Uncertainty (1-sigma) | Units |
e | .07142191341461672 | 5.0019e-08 | |
a | 2.374257207298367 | 1.2589e-08 | au |
q | 2.204683214614674 | 1.2083e-07 | au |
i | 5.848204215082612 | 4.9522e-06 | deg |
node | 38.82415361630782 | 4.2949e-05 | deg |
peri | 185.8506750874787 | 5.6528e-05 | deg |
M | 47.38312135147057 | 3.4273e-05 | deg |
tp | 2459024.622112736521 (2020-Jun-24.12211274) | 0.00012763 | TDB |
period | 1336.257249605768 3.66 | 1.0628e-05 2.91e-08 | d yr |
n | .2694092025365699 | 2.1427e-09 | deg/d |
Q | 2.543831199982061 | 1.3488e-08 | au |
|
| | Orbit Determination Parameters
Additional Information
|